Flag for U.S.A. Weather past 2 weeks in Fall River, Massachusetts, U.S.A.

Now
49 °F

Passing clouds.


Feels Like: 44 °F
Forecast: 38 / 48 °F
Wind: 13 mph from Southwest

Location: New Bedford Regional Airport

Current Time: Dec 28, 2014 at 6:47:26 AM

Latest Report: Dec 28, 2014 at 5:53 AM


Visibility: 10 mi

Pressure: 29.86 "Hg

Humidity: 77%

Dew point: 42 °F

Location of Fall RiverLocation

Historic Weather in Fall River — Graph

°F

Fall River temperature yesterday

Maximum temperature yesterday: 53 °F (at 12:53 PM)
Minimum temperature yesterday: 29 °F (at 4:53 AM)
Average temperature yesterday: 40 °F

Past Weeks' High & Low Weather Summary

 TemperatureHumidityPressure
High62 °F (Dec 24, 7:53 PM)100% (Dec 15, 8:53 PM)30.37 "Hg (Dec 15, 8:53 PM)
Low25 °F (Dec 15, 6:53 AM)47% (Dec 27, 11:53 AM)29.52 "Hg (Dec 25, 4:53 AM)
Average40 °F83%30.01 "Hg
* Reported Dec 13 4:53 AM — Dec 28 4:53 AM, Fall River, Weather by CustomWeather, © 2014

Note: Actual official high and low records may vary slightly from our data, if they occured in-between our weather recording intervals... More about our weather records

Advertising

Fall River weather history for previous 24 hours

 ConditionsComfort  
Time TempWeatherWind HumidityBarometerVisibility
4:53 AM
Dec 28
48 °FClear.12 mph83%29.89 "Hg10 mi
3:53 AM45 °FClear.8 mph90%29.91 "Hg10 mi
2:53 AM42 °FClear.7 mph92%29.95 "Hg10 mi
1:53 AM41 °FClear.9 mph93%29.99 "Hg10 mi
12:53 AM41 °FClear.6 mph86%30.02 "Hg10 mi
11:53 PM
Dec 27
37 °FClear.5 mph93%30.07 "Hg10 mi
10:53 PM37 °FClear.No wind93%30.09 "Hg10 mi
9:53 PM36 °FClear.No wind92%30.12 "Hg10 mi
8:53 PM39 °FClear.No wind89%30.13 "Hg10 mi
7:53 PM42 °FClear.5 mph82%30.14 "Hg10 mi
6:53 PM42 °FClear.5 mph79%30.15 "Hg10 mi
5:53 PM45 °FClear.8 mph71%30.15 "Hg10 mi
4:53 PM46 °FClear.7 mph66%30.14 "Hg10 mi
3:53 PM51 °FSunny.8 mph52%30.14 "Hg10 mi
2:53 PM53 °FSunny.7 mph48%30.14 "Hg10 mi
1:53 PM53 °FSunny.9 mph47%30.14 "Hg10 mi
12:53 PM53 °FSunny.12 mph47%30.15 "Hg10 mi
11:53 AM52 °FSunny.8 mph47%30.17 "Hg10 mi
10:53 AM50 °FSunny.8 mph52%30.20 "Hg10 mi
9:53 AM45 °FSunny.6 mph63%30.23 "Hg10 mi
8:53 AM38 °FSunny.6 mph83%30.22 "Hg10 mi
7:53 AM31 °FSunny.3 mph92%30.21 "Hg10 mi
6:53 AM31 °FClear.No wind89%30.18 "Hg10 mi
Weather by CustomWeather, © 2014

See weather overviewHow to use our weather pages